Time,TemperatureF,DewpointF,PressureIn,WindDirection,WindDirectionDegrees,WindSpeedMPH,WindSpeedGustMPH,Humidity,HourlyPrecipIn,Conditions,Clouds,dailyrainin,SoftwareType,DateUTC
2013-04-08 00:00:00,35.8,28.0,30.09,West,270,0.0,0.0,73,0.00,,---,0.00,VWS V14.01,2013-04-08 04:00:00,
2013-04-08 00:01:00,35.8,28.3,30.09,West,270,0.0,0.0,74,0.00,,---,0.00,VWS V14.01,2013-04-08 04:01:00,
2013-04-08 00:06:00,35.6,28.1,30.09,West,270,0.0,0.0,74,0.00,,---,0.00,VWS V14.01,2013-04-08 04:06:00,
2013-04-08 00:11:00,35.8,28.6,30.09,West,270,0.0,0.0,75,0.00,,---,0.00,VWS V14.01,2013-04-08 04:11:00,
2013-04-08 00:16:00,35.6,28.8,30.09,West,270,0.0,0.0,76,0.00,,---,0.00,VWS V14.01,2013-04-08 04:16:00,
2013-04-08 00:21:00,35.4,28.6,30.09,West,270,0.0,0.0,76,0.00,,---,0.00,VWS V14.01,2013-04-08 04:21:00,
2013-04-08 00:26:00,35.4,28.9,30.09,West,270,0.0,0.0,77,0.00,,---,0.00,VWS V14.01,2013-04-08 04:26:00,
2013-04-08 00:32:00,35.4,28.9,30.09,West,270,0.0,0.0,77,0.00,,---,0.00,VWS V14.01,2013-04-08 04:32:00,
2013-04-08 00:37:00,35.4,29.2,30.09,West,270,0.0,0.0,78,0.00,,---,0.00,VWS V14.01,2013-04-08 04:37:00,
2013-04-08 00:42:00,35.4,29.2,30.09,West,270,0.0,0.0,78,0.00,,---,0.00,VWS V14.01,2013-04-08 04:42:00,
2013-04-08 00:47:00,35.4,29.6,30.09,West,270,0.0,0.0,79,0.00,,---,0.00,VWS V14.01,2013-04-08 04:47:00,
2013-04-08 00:52:00,35.4,29.6,30.09,West,270,0.0,0.0,79,0.00,,---,0.00,VWS V14.01,2013-04-08 04:52:00,
2013-04-08 00:57:00,35.2,29.4,30.12,West,270,0.0,0.0,79,0.00,,---,0.00,VWS V14.01,2013-04-08 04:57:00,
2013-04-08 01:02:00,35.1,29.2,30.12,West,270,0.0,0.0,79,0.00,,---,0.00,VWS V14.01,2013-04-08 05:02:00,
2013-04-08 01:07:00,34.9,29.4,30.12,West,270,0.0,0.0,80,0.00,,---,0.00,VWS V14.01,2013-04-08 05:07:00,
2013-04-08 01:12:00,34.9,29.4,30.12,West,270,0.0,0.0,80,0.00,,---,0.00,VWS V14.01,2013-04-08 05:12:00,
2013-04-08 01:17:00,34.7,29.5,30.12,West,270,0.0,0.0,81,0.00,,---,0.00,VWS V14.01,2013-04-08 05:17:00,
2013-04-08 01:22:00,34.9,30.0,30.12,West,270,0.0,0.0,82,0.00,,---,0.00,VWS V14.01,2013-04-08 05:22:00,
2013-04-08 01:27:00,35.1,30.1,30.12,West,270,0.0,0.0,82,0.00,,---,0.00,VWS V14.01,2013-04-08 05:27:00,
2013-04-08 01:32:00,35.1,30.4,30.12,West,270,0.0,0.0,83,0.00,,---,0.00,VWS V14.01,2013-04-08 05:32:00,
2013-04-08 01:37:00,34.9,30.2,30.12,West,270,0.0,0.0,83,0.00,,---,0.00,VWS V14.01,2013-04-08 05:37:00,
2013-04-08 01:42:00,34.9,30.5,30.12,West,270,0.0,0.0,84,0.00,,---,0.00,VWS V14.01,2013-04-08 05:42:00,
2013-04-08 01:47:00,35.1,30.7,30.12,West,270,0.0,0.0,84,0.00,,---,0.00,VWS V14.01,2013-04-08 05:47:00,
2013-04-08 01:52:00,35.1,31.0,30.12,West,270,0.0,0.0,85,0.00,,---,0.00,VWS V14.01,2013-04-08 05:52:00,
2013-04-08 01:57:00,35.1,31.0,30.12,West,270,0.0,0.0,85,0.00,,---,0.00,VWS V14.01,2013-04-08 05:57:00,
2013-04-08 02:02:00,34.9,31.1,30.12,West,270,0.0,0.0,86,0.00,,---,0.00,VWS V14.01,2013-04-08 06:02:00,
2013-04-08 02:07:00,34.7,31.0,30.12,West,270,0.0,0.0,86,0.00,,---,0.00,VWS V14.01,2013-04-08 06:07:00,
2013-04-08 02:12:00,34.7,31.0,30.12,West,270,0.0,0.0,86,0.00,,---,0.00,VWS V14.01,2013-04-08 06:12:00,
2013-04-08 02:17:00,34.7,31.2,30.12,West,270,0.0,0.0,87,0.00,,---,0.00,VWS V14.01,2013-04-08 06:17:00,
2013-04-08 02:22:00,34.5,31.1,30.12,West,270,0.0,0.0,87,0.00,,---,0.00,VWS V14.01,2013-04-08 06:22:00,
2013-04-08 02:27:00,34.3,30.9,30.12,West,270,0.0,0.0,87,0.00,,---,0.00,VWS V14.01,2013-04-08 06:27:00,
2013-04-08 02:32:00,34.2,30.7,30.12,West,270,0.0,0.0,87,0.00,,---,0.00,VWS V14.01,2013-04-08 06:32:00,
2013-04-08 02:37:00,34.0,30.5,30.12,West,270,0.0,0.0,87,0.00,,---,0.00,VWS V14.01,2013-04-08 06:37:00,
2013-04-08 02:42:00,34.0,30.8,30.12,West,270,0.0,0.0,88,0.00,,---,0.00,VWS V14.01,2013-04-08 06:42:00,
2013-04-08 02:47:00,33.6,30.5,30.12,West,270,0.0,0.0,88,0.00,,---,0.00,VWS V14.01,2013-04-08 06:47:00,
2013-04-08 02:52:00,33.6,30.5,30.12,West,270,0.0,0.0,88,0.00,,---,0.00,VWS V14.01,2013-04-08 06:52:00,
2013-04-08 02:57:00,33.6,30.7,30.09,West,270,0.0,0.0,89,0.00,,---,0.00,VWS V14.01,2013-04-08 06:57:00,
2013-04-08 03:02:00,33.3,30.4,30.09,West,270,0.0,0.0,89,0.00,,---,0.00,VWS V14.01,2013-04-08 07:02:00,
2013-04-08 03:07:00,33.1,30.2,30.09,West,270,0.0,0.0,89,0.00,,---,0.00,VWS V14.01,2013-04-08 07:07:00,
2013-04-08 03:12:00,32.7,29.8,30.12,West,270,0.0,0.0,89,0.00,,---,0.00,VWS V14.01,2013-04-08 07:12:00,
2013-04-08 03:17:00,32.5,29.7,30.12,West,270,0.0,0.0,89,0.00,,---,0.00,VWS V14.01,2013-04-08 07:17:00,
2013-04-08 03:22:00,32.5,29.7,30.12,West,270,0.0,0.0,89,0.00,,---,0.00,VWS V14.01,2013-04-08 07:22:00,
2013-04-08 03:27:00,32.5,29.7,30.12,West,270,0.0,0.0,89,0.00,,---,0.00,VWS V14.01,2013-04-08 07:27:00,
2013-04-08 03:32:00,32.2,29.6,30.12,West,270,0.0,0.0,90,0.00,,---,0.00,VWS V14.01,2013-04-08 07:32:00,
2013-04-08 03:37:00,32.4,29.8,30.12,West,270,0.0,0.0,90,0.00,,---,0.00,VWS V14.01,2013-04-08 07:37:00,
2013-04-08 03:42:00,32.4,29.8,30.09,West,270,0.0,0.0,90,0.00,,---,0.00,VWS V14.01,2013-04-08 07:42:00,
2013-04-08 03:47:00,32.2,29.6,30.09,West,270,0.0,0.0,90,0.00,,---,0.00,VWS V14.01,2013-04-08 07:47:00,
2013-04-08 03:52:00,32.0,29.7,30.09,West,270,0.0,0.0,91,0.00,,---,0.00,VWS V14.01,2013-04-08 07:52:00,
2013-04-08 03:57:00,31.8,29.5,30.09,West,270,0.0,0.0,91,0.00,,---,0.00,VWS V14.01,2013-04-08 07:57:00,
2013-04-08 04:02:00,31.6,29.3,30.09,West,270,0.0,0.0,91,0.00,,---,0.00,VWS V14.01,2013-04-08 08:02:00,
2013-04-08 04:07:00,31.6,29.3,30.09,West,270,0.0,0.0,91,0.00,,---,0.00,VWS V14.01,2013-04-08 08:07:00,
2013-04-08 04:12:00,31.8,29.8,30.09,West,270,0.0,0.0,92,0.00,,---,0.00,VWS V14.01,2013-04-08 08:12:00,
2013-04-08 04:17:00,31.8,29.8,30.09,West,270,0.0,0.0,92,0.00,,---,0.00,VWS V14.01,2013-04-08 08:17:00,
2013-04-08 04:22:00,31.6,29.9,30.09,West,270,0.0,0.0,93,0.00,,---,0.00,VWS V14.01,2013-04-08 08:22:00,
2013-04-08 04:27:00,31.5,29.7,30.09,West,270,0.0,0.0,93,0.00,,---,0.00,VWS V14.01,2013-04-08 08:27:00,
2013-04-08 04:32:00,31.3,29.5,30.09,West,270,0.0,0.0,93,0.00,,---,0.00,VWS V14.01,2013-04-08 08:32:00,
2013-04-08 04:37:00,31.1,29.3,30.09,West,270,0.0,0.0,93,0.00,,---,0.00,VWS V14.01,2013-04-08 08:37:00,
2013-04-08 04:42:00,31.1,29.3,30.09,West,270,0.0,0.0,93,0.00,,---,0.00,VWS V14.01,2013-04-08 08:42:00,
2013-04-08 04:47:00,31.1,29.6,30.09,West,270,0.0,0.0,94,0.00,,---,0.00,VWS V14.01,2013-04-08 08:47:00,
2013-04-08 04:52:00,31.3,29.8,30.09,West,270,0.0,0.0,94,0.00,,---,0.00,VWS V14.01,2013-04-08 08:52:00,
2013-04-08 04:57:00,31.3,29.8,30.09,West,270,0.0,0.0,94,0.00,,---,0.00,VWS V14.01,2013-04-08 08:57:00,
2013-04-08 05:02:00,31.1,29.6,30.09,West,270,0.0,0.0,94,0.00,,---,0.00,VWS V14.01,2013-04-08 09:02:00,
2013-04-08 05:07:00,31.1,29.8,30.09,West,270,0.0,0.0,95,0.00,,---,0.00,VWS V14.01,2013-04-08 09:07:00,
2013-04-08 05:12:00,31.3,30.0,30.09,West,270,0.0,0.0,95,0.00,,---,0.00,VWS V14.01,2013-04-08 09:12:00,
2013-04-08 05:17:00,31.5,30.2,30.09,West,270,0.0,0.0,95,0.00,,---,0.00,VWS V14.01,2013-04-08 09:17:00,
2013-04-08 05:22:00,31.5,30.5,30.09,West,270,0.0,0.0,96,0.00,,---,0.00,VWS V14.01,2013-04-08 09:22:00,
2013-04-08 05:27:00,31.5,30.5,30.09,West,270,0.0,0.0,96,0.00,,---,0.00,VWS V14.01,2013-04-08 09:27:00,
2013-04-08 05:32:00,31.5,30.5,30.09,West,270,0.0,0.0,96,0.00,,---,0.00,VWS V14.01,2013-04-08 09:32:00,
2013-04-08 05:37:00,31.3,30.3,30.09,West,270,0.0,0.0,96,0.00,,---,0.00,VWS V14.01,2013-04-08 09:37:00,
2013-04-08 05:42:00,31.1,30.1,30.09,West,270,0.0,0.0,96,0.00,,---,0.00,VWS V14.01,2013-04-08 09:42:00,
2013-04-08 05:47:00,30.9,29.9,30.09,West,270,0.0,0.0,96,0.00,,---,0.00,VWS V14.01,2013-04-08 09:47:00,
2013-04-08 05:52:00,31.1,30.1,30.09,West,270,0.0,0.0,96,0.00,,---,0.00,VWS V14.01,2013-04-08 09:52:00,
2013-04-08 05:57:00,30.9,30.2,30.09,West,270,0.0,0.0,97,0.00,,---,0.00,VWS V14.01,2013-04-08 09:57:00,
2013-04-08 06:02:00,30.9,30.2,30.09,West,270,0.0,0.0,97,0.00,,---,0.00,VWS V14.01,2013-04-08 10:02:00,
2013-04-08 06:07:00,30.9,30.2,30.09,West,270,0.0,0.0,97,0.00,,---,0.00,VWS V14.01,2013-04-08 10:07:00,
2013-04-08 06:12:00,30.7,30.0,30.09,West,270,0.0,0.0,97,0.00,,---,0.00,VWS V14.01,2013-04-08 10:12:00,
2013-04-08 06:17:00,30.7,30.0,30.09,West,270,0.0,0.0,97,0.00,,---,0.00,VWS V14.01,2013-04-08 10:17:00,
2013-04-08 06:22:00,30.9,30.2,30.09,West,270,0.0,0.0,97,0.00,,---,0.00,VWS V14.01,2013-04-08 10:22:00,
2013-04-08 06:28:00,31.1,30.6,30.09,West,270,0.0,0.0,98,0.00,,---,0.00,VWS V14.01,2013-04-08 10:28:00,
2013-04-08 06:33:00,31.1,30.6,30.09,West,270,0.0,0.0,98,0.00,,---,0.00,VWS V14.01,2013-04-08 10:33:00,
2013-04-08 06:38:00,31.3,30.8,30.09,West,270,0.0,0.0,98,0.00,,---,0.00,VWS V14.01,2013-04-08 10:38:00,
2013-04-08 06:43:00,31.5,31.0,30.09,West,270,0.0,0.0,98,0.00,,---,0.00,VWS V14.01,2013-04-08 10:43:00,
2013-04-08 06:48:00,31.6,31.1,30.09,West,270,0.0,0.0,98,0.00,,---,0.00,VWS V14.01,2013-04-08 10:48:00,
2013-04-08 06:53:00,31.8,31.3,30.09,West,270,0.0,0.0,98,0.00,,---,0.00,VWS V14.01,2013-04-08 10:53:00,
2013-04-08 06:58:00,31.8,31.3,30.12,West,270,0.0,0.0,98,0.00,,---,0.00,VWS V14.01,2013-04-08 10:58:00,
2013-04-08 07:03:00,32.0,31.5,30.12,West,270,0.0,0.0,98,0.00,,---,0.00,VWS V14.01,2013-04-08 11:03:00,
2013-04-08 07:08:00,32.2,31.7,30.12,SE,135,0.0,0.0,98,0.00,,---,0.00,VWS V14.01,2013-04-08 11:08:00,
2013-04-08 07:13:00,33.1,32.6,30.12,South,180,0.0,0.0,98,0.00,,---,0.00,VWS V14.01,2013-04-08 11:13:00,
2013-04-08 07:18:00,34.0,33.5,30.12,South,180,2.7,3.1,98,0.00,,---,0.00,VWS V14.01,2013-04-08 11:18:00,
2013-04-08 07:22:00,34.7,34.2,30.12,South,180,0.0,0.0,98,0.00,,---,0.00,VWS V14.01,2013-04-08 11:22:00,
2013-04-08 07:28:00,35.1,34.5,30.12,South,180,0.0,0.0,98,0.00,,---,0.00,VWS V14.01,2013-04-08 11:28:00,
2013-04-08 07:32:00,35.6,35.1,30.12,SE,135,0.0,0.0,98,0.00,,---,0.00,VWS V14.01,2013-04-08 11:32:00,
2013-04-08 07:38:00,36.0,35.5,30.12,South,180,0.0,0.0,98,0.00,,---,0.00,VWS V14.01,2013-04-08 11:38:00,
2013-04-08 07:43:00,36.3,35.8,30.12,ESE,112,0.0,0.0,98,0.00,,---,0.00,VWS V14.01,2013-04-08 11:43:00,
2013-04-08 07:48:00,36.7,36.2,30.12,East,90,0.0,0.0,98,0.00,,---,0.00,VWS V14.01,2013-04-08 11:48:00,
2013-04-08 07:53:00,36.7,36.2,30.12,SE,135,0.0,0.0,98,0.00,,---,0.00,VWS V14.01,2013-04-08 11:53:00,
2013-04-08 07:58:00,37.2,36.7,30.12,SE,135,2.7,2.7,98,0.00,,---,0.00,VWS V14.01,2013-04-08 11:58:00,
2013-04-08 08:03:00,37.9,37.4,30.12,SW,225,0.0,2.7,98,0.00,,---,0.00,VWS V14.01,2013-04-08 12:03:00,
2013-04-08 08:08:00,38.7,38.2,30.12,South,180,0.0,0.0,98,0.00,,---,0.00,VWS V14.01,2013-04-08 12:08:00,
2013-04-08 08:13:00,39.6,39.0,30.12,South,180,2.7,3.6,98,0.00,,---,0.00,VWS V14.01,2013-04-08 12:13:00,
2013-04-08 08:18:00,40.5,39.9,30.12,SSE,158,0.0,0.0,98,0.00,,---,0.00,VWS V14.01,2013-04-08 12:18:00,
2013-04-08 08:23:00,41.4,40.8,30.12,South,180,0.0,0.0,98,0.00,,---,0.00,VWS V14.01,2013-04-08 12:23:00,
2013-04-08 08:28:00,42.3,41.7,30.12,SSE,158,2.7,6.3,98,0.00,,---,0.00,VWS V14.01,2013-04-08 12:28:00,
2013-04-08 08:33:00,43.3,42.8,30.12,WSW,248,0.0,2.7,98,0.00,,---,0.00,VWS V14.01,2013-04-08 12:33:00,
2013-04-08 08:38:00,44.1,43.3,30.12,SW,225,0.0,3.1,97,0.00,,---,0.00,VWS V14.01,2013-04-08 12:38:00,
2013-04-08 08:43:00,45.0,41.9,30.12,SE,135,3.1,3.1,89,0.00,,---,0.00,VWS V14.01,2013-04-08 12:43:00,
2013-04-08 08:48:00,45.5,37.7,30.12,SW,225,0.0,2.7,74,0.00,,---,0.00,VWS V14.01,2013-04-08 12:48:00,
2013-04-08 08:53:00,46.2,33.1,30.12,SW,225,2.2,4.0,60,0.00,,---,0.00,VWS V14.01,2013-04-08 12:53:00,
2013-04-08 08:58:00,46.8,30.5,30.12,South,180,0.0,2.7,53,0.00,,---,0.00,VWS V14.01,2013-04-08 12:58:00,
2013-04-08 09:03:00,47.7,30.0,30.12,South,180,2.7,2.7,50,0.00,,---,0.00,VWS V14.01,2013-04-08 13:03:00,
2013-04-08 09:08:00,48.6,29.3,30.12,SW,225,3.1,3.1,47,0.00,,---,0.00,VWS V14.01,2013-04-08 13:08:00,
2013-04-08 09:13:00,49.5,27.3,30.12,SW,225,3.6,4.0,42,0.00,,---,0.00,VWS V14.01,2013-04-08 13:13:00,
2013-04-08 09:18:00,49.8,26.5,30.12,SE,135,4.0,4.0,40,0.00,,---,0.00,VWS V14.01,2013-04-08 13:18:00,
2013-04-08 09:23:00,50.7,26.0,30.12,South,180,3.1,3.1,38,0.00,,---,0.00,VWS V14.01,2013-04-08 13:23:00,
2013-04-08 09:28:00,51.3,25.9,30.12,SSW,202,2.7,2.7,37,0.00,,---,0.00,VWS V14.01,2013-04-08 13:28:00,
2013-04-08 09:33:00,51.8,25.7,30.12,SW,225,7.2,7.2,36,0.00,,---,0.00,VWS V14.01,2013-04-08 13:33:00,
2013-04-08 09:38:00,52.2,24.7,30.12,SW,225,3.6,4.9,34,0.00,,---,0.00,VWS V14.01,2013-04-08 13:38:00,
2013-04-08 09:43:00,52.9,25.3,30.12,West,270,3.1,3.1,34,0.00,,---,0.00,VWS V14.01,2013-04-08 13:43:00,
2013-04-08 09:48:00,53.4,25.8,30.12,South,180,3.6,4.9,34,0.00,,---,0.00,VWS V14.01,2013-04-08 13:48:00,
2013-04-08 09:53:00,54.1,25.0,30.12,South,180,4.9,4.9,32,0.00,,---,0.00,VWS V14.01,2013-04-08 13:53:00,
2013-04-08 09:58:00,54.9,24.8,30.09,West,270,7.2,7.2,31,0.00,,---,0.00,VWS V14.01,2013-04-08 13:58:00,
2013-04-08 10:03:00,54.9,22.4,30.09,WSW,248,4.9,5.4,28,0.00,,---,0.00,VWS V14.01,2013-04-08 14:03:00,
2013-04-08 10:08:00,55.4,22.0,30.09,SSW,202,7.2,7.2,27,0.00,,---,0.00,VWS V14.01,2013-04-08 14:08:00,
2013-04-08 10:13:00,56.3,22.8,30.09,SSW,202,3.1,4.9,27,0.00,,---,0.00,VWS V14.01,2013-04-08 14:13:00,
2013-04-08 10:18:00,56.7,23.1,30.09,SW,225,6.3,6.3,27,0.00,,---,0.00,VWS V14.01,2013-04-08 14:18:00,
2013-04-08 10:23:00,56.7,22.2,30.09,SSE,158,4.0,6.3,26,0.00,,---,0.00,VWS V14.01,2013-04-08 14:23:00,
2013-04-08 10:28:00,57.2,21.7,30.09,SE,135,6.7,8.7,25,0.00,,---,0.00,VWS V14.01,2013-04-08 14:28:00,
2013-04-08 10:33:00,57.6,22.0,30.09,SE,135,6.3,6.3,25,0.00,,---,0.00,VWS V14.01,2013-04-08 14:33:00,
2013-04-08 10:38:00,58.1,21.5,30.09,SE,135,4.9,7.6,24,0.00,,---,0.00,VWS V14.01,2013-04-08 14:38:00,
2013-04-08 10:43:00,58.6,22.0,30.09,South,180,3.6,3.6,24,0.00,,---,0.00,VWS V14.01,2013-04-08 14:43:00,
2013-04-08 10:48:00,59.4,20.5,30.09,South,180,3.1,4.9,22,0.00,,---,0.00,VWS V14.01,2013-04-08 14:48:00,
2013-04-08 10:53:00,59.7,20.8,30.09,SW,225,2.7,4.0,22,0.00,,---,0.00,VWS V14.01,2013-04-08 14:53:00,
2013-04-08 10:58:00,60.3,17.9,30.09,WSW,248,5.4,7.6,19,0.00,,---,0.00,VWS V14.01,2013-04-08 14:58:00,
2013-04-08 11:03:00,60.8,20.6,30.09,SW,225,4.0,4.0,21,0.00,,---,0.00,VWS V14.01,2013-04-08 15:03:00,
2013-04-08 11:08:00,61.5,18.9,30.09,South,180,5.8,7.2,19,0.00,,---,0.00,VWS V14.01,2013-04-08 15:08:00,
2013-04-08 11:13:00,61.5,18.9,30.06,SSE,158,5.8,5.8,19,0.00,,---,0.00,VWS V14.01,2013-04-08 15:13:00,
2013-04-08 11:18:00,61.9,19.2,30.06,SE,135,4.0,6.3,19,0.00,,---,0.00,VWS V14.01,2013-04-08 15:18:00,
2013-04-08 11:23:00,62.4,22.0,30.06,SW,225,3.1,4.9,21,0.00,,---,0.00,VWS V14.01,2013-04-08 15:23:00,
2013-04-08 11:28:00,63.3,19.1,30.06,West,270,2.7,3.1,18,0.00,,---,0.00,VWS V14.01,2013-04-08 15:28:00,
2013-04-08 11:33:00,63.5,19.3,30.06,South,180,4.9,5.8,18,0.00,,---,0.00,VWS V14.01,2013-04-08 15:33:00,
2013-04-08 11:38:00,64.2,19.9,30.06,South,180,5.4,5.4,18,0.00,,---,0.00,VWS V14.01,2013-04-08 15:38:00,
2013-04-08 11:43:00,65.1,20.6,30.06,SW,225,4.0,6.3,18,0.00,,---,0.00,VWS V14.01,2013-04-08 15:43:00,
2013-04-08 11:48:00,65.5,20.9,30.06,SSW,202,2.7,3.1,18,0.00,,---,0.00,VWS V14.01,2013-04-08 15:48:00,
2013-04-08 11:53:00,66.0,21.3,30.06,SW,225,3.1,5.4,18,0.00,,---,0.00,VWS V14.01,2013-04-08 15:53:00,
2013-04-08 11:58:00,66.4,20.3,30.06,SW,225,2.7,3.6,17,0.00,,---,0.00,VWS V14.01,2013-04-08 15:58:00,
2013-04-08 12:03:00,67.1,20.9,30.06,SW,225,3.1,5.8,17,0.00,,---,0.00,VWS V14.01,2013-04-08 16:03:00,
2013-04-08 12:08:00,68.0,21.6,30.06,SW,225,4.0,4.0,17,0.00,,---,0.00,VWS V14.01,2013-04-08 16:08:00,
2013-04-08 12:13:00,67.8,21.5,30.06,SW,225,3.6,5.8,17,0.00,,---,0.00,VWS V14.01,2013-04-08 16:13:00,
2013-04-08 12:19:00,67.3,21.0,30.06,SW,225,3.6,5.8,17,0.00,,---,0.00,VWS V14.01,2013-04-08 16:19:00,
2013-04-08 12:24:00,67.3,21.0,30.06,West,270,2.7,8.7,17,0.00,,---,0.00,VWS V14.01,2013-04-08 16:24:00,
2013-04-08 12:29:00,66.7,20.6,30.06,SSE,158,3.6,4.9,17,0.00,,---,0.00,VWS V14.01,2013-04-08 16:29:00,
2013-04-08 12:34:00,66.6,20.4,30.06,SW,225,4.5,8.3,17,0.00,,---,0.00,VWS V14.01,2013-04-08 16:34:00,
2013-04-08 12:39:00,67.6,21.3,30.03,SW,225,2.7,7.6,17,0.00,,---,0.00,VWS V14.01,2013-04-08 16:39:00,
2013-04-08 12:44:00,68.4,21.9,30.03,SW,225,4.9,5.4,17,0.00,,---,0.00,VWS V14.01,2013-04-08 16:44:00,
2013-04-08 12:49:00,68.7,22.2,30.03,SSW,202,3.1,3.1,17,0.00,,---,0.00,VWS V14.01,2013-04-08 16:49:00,
2013-04-08 12:54:00,68.0,21.6,30.03,SW,225,3.6,6.3,17,0.00,,---,0.00,VWS V14.01,2013-04-08 16:54:00,
2013-04-08 12:59:00,66.9,20.7,30.03,SW,225,5.8,5.8,17,0.00,,---,0.00,VWS V14.01,2013-04-08 16:59:00,
2013-04-08 13:04:00,66.6,20.4,30.03,South,180,5.4,8.3,17,0.00,,---,0.00,VWS V14.01,2013-04-08 17:04:00,
2013-04-08 13:09:00,66.4,20.3,30.03,WSW,248,4.0,4.0,17,0.00,,---,0.00,VWS V14.01,2013-04-08 17:09:00,
2013-04-08 13:14:00,67.1,20.9,30.03,SSE,158,4.9,7.6,17,0.00,,---,0.00,VWS V14.01,2013-04-08 17:14:00,
2013-04-08 13:19:00,67.6,21.3,30.03,South,180,3.1,5.8,17,0.00,,---,0.00,VWS V14.01,2013-04-08 17:19:00,
2013-04-08 13:24:00,68.0,21.6,30.00,WSW,248,3.6,6.3,17,0.00,,---,0.00,VWS V14.01,2013-04-08 17:24:00,
2013-04-08 13:29:00,67.8,21.5,30.00,SW,225,8.7,9.2,17,0.00,,---,0.00,VWS V14.01,2013-04-08 17:29:00,
2013-04-08 13:34:00,67.5,21.2,30.00,West,270,7.6,8.1,17,0.00,,---,0.00,VWS V14.01,2013-04-08 17:34:00,
2013-04-08 13:39:00,67.6,21.3,30.00,SW,225,6.3,8.1,17,0.00,,---,0.00,VWS V14.01,2013-04-08 17:39:00,
2013-04-08 13:45:00,68.5,22.0,30.00,SSW,202,2.7,4.0,17,0.00,,---,0.00,VWS V14.01,2013-04-08 17:45:00,
2013-04-08 13:50:00,69.3,22.6,30.00,West,270,3.1,3.1,17,0.00,,---,0.00,VWS V14.01,2013-04-08 17:50:00,
2013-04-08 13:55:00,69.1,22.5,30.00,SW,225,5.8,5.8,17,0.00,,---,0.00,VWS V14.01,2013-04-08 17:55:00,
2013-04-08 14:00:00,68.4,21.9,30.00,SW,225,7.2,8.3,17,0.00,,---,0.00,VWS V14.01,2013-04-08 18:00:00,
2013-04-08 14:05:00,68.7,22.2,30.00,South,180,4.0,4.0,17,0.00,,---,0.00,VWS V14.01,2013-04-08 18:05:00,
2013-04-08 14:10:00,69.6,22.9,29.97,South,180,4.0,7.6,17,0.00,,---,0.00,VWS V14.01,2013-04-08 18:10:00,
2013-04-08 14:15:00,70.2,23.4,29.97,South,180,8.7,10.1,17,0.00,,---,0.00,VWS V14.01,2013-04-08 18:15:00,
2013-04-08 14:20:00,69.6,22.9,29.97,WSW,248,9.6,9.6,17,0.00,,---,0.00,VWS V14.01,2013-04-08 18:20:00,
2013-04-08 14:25:00,69.3,22.6,29.97,South,180,3.1,5.8,17,0.00,,---,0.00,VWS V14.01,2013-04-08 18:25:00,
2013-04-08 14:30:00,68.7,22.2,29.97,SW,225,4.5,8.7,17,0.00,,---,0.00,VWS V14.01,2013-04-08 18:30:00,
2013-04-08 14:35:00,68.5,22.0,29.97,SW,225,7.2,7.2,17,0.00,,---,0.00,VWS V14.01,2013-04-08 18:35:00,
2013-04-08 14:40:00,69.1,22.5,29.97,SW,225,2.7,4.0,17,0.00,,---,0.00,VWS V14.01,2013-04-08 18:40:00,
2013-04-08 14:45:00,70.5,23.6,29.97,SSW,202,9.6,9.6,17,0.00,,---,0.00,VWS V14.01,2013-04-08 18:45:00,
2013-04-08 14:50:00,70.2,23.4,29.97,SW,225,5.4,12.8,17,0.00,,---,0.00,VWS V14.01,2013-04-08 18:50:00,
2013-04-08 14:55:00,70.5,23.6,29.97,West,270,8.3,8.7,17,0.00,,---,0.00,VWS V14.01,2013-04-08 18:55:00,
2013-04-08 15:00:00,69.8,23.1,29.97,SW,225,5.4,8.1,17,0.00,,---,0.00,VWS V14.01,2013-04-08 19:00:00,
2013-04-08 15:05:00,69.6,22.9,29.97,NW,315,2.7,8.7,17,0.00,,---,0.00,VWS V14.01,2013-04-08 19:05:00,
2013-04-08 15:10:00,69.1,22.5,29.97,South,180,4.9,8.7,17,0.00,,---,0.00,VWS V14.01,2013-04-08 19:10:00,
2013-04-08 15:15:00,68.5,22.0,29.97,West,270,4.0,5.8,17,0.00,,---,0.00,VWS V14.01,2013-04-08 19:15:00,
2013-04-08 15:21:00,67.8,21.5,29.97,SSW,202,3.1,7.6,17,0.00,,---,0.00,VWS V14.01,2013-04-08 19:21:00,
2013-04-08 15:26:00,67.1,24.7,29.97,SW,225,7.6,8.7,20,0.00,,---,0.00,VWS V14.01,2013-04-08 19:26:00,
2013-04-08 15:31:00,66.9,20.7,29.97,West,270,7.6,7.6,17,0.00,,---,0.00,VWS V14.01,2013-04-08 19:31:00,
2013-04-08 15:36:00,67.1,20.9,29.97,SW,225,4.9,4.9,17,0.00,,---,0.00,VWS V14.01,2013-04-08 19:36:00,
2013-04-08 16:24:00,68.0,21.6,29.91,SW,225,2.7,6.7,17,0.00,,---,0.00,VWS V14.01,2013-04-08 20:24:00,
2013-04-08 16:29:00,68.2,21.7,29.91,SW,225,4.9,4.9,17,0.00,,---,0.00,VWS V14.01,2013-04-08 20:29:00,
2013-04-08 16:34:00,68.4,21.9,29.91,South,180,3.1,10.1,17,0.00,,---,0.00,VWS V14.01,2013-04-08 20:34:00,
2013-04-08 16:39:00,68.7,22.2,29.91,SW,225,3.6,6.3,17,0.00,,---,0.00,VWS V14.01,2013-04-08 20:39:00,
2013-04-08 16:44:00,68.9,22.3,29.91,SW,225,6.3,6.3,17,0.00,,---,0.00,VWS V14.01,2013-04-08 20:44:00,
2013-04-08 16:49:00,69.1,22.5,29.91,SW,225,5.4,6.3,17,0.00,,---,0.00,VWS V14.01,2013-04-08 20:49:00,
2013-04-08 16:54:00,69.1,22.5,29.91,South,180,3.6,4.0,17,0.00,,---,0.00,VWS V14.01,2013-04-08 20:54:00,
2013-04-08 16:59:00,69.1,22.5,29.91,SE,135,6.3,6.3,17,0.00,,---,0.00,VWS V14.01,2013-04-08 20:59:00,
2013-04-08 17:04:00,69.1,22.5,29.91,WSW,248,4.0,8.3,17,0.00,,---,0.00,VWS V14.01,2013-04-08 21:04:00,
2013-04-08 17:09:00,69.3,22.6,29.91,West,270,8.7,8.7,17,0.00,,---,0.00,VWS V14.01,2013-04-08 21:09:00,
2013-04-08 17:14:00,69.8,23.1,29.91,SW,225,8.3,8.3,17,0.00,,---,0.00,VWS V14.01,2013-04-08 21:14:00,
2013-04-08 17:19:00,70.2,23.4,29.91,SW,225,8.3,11.0,17,0.00,,---,0.00,VWS V14.01,2013-04-08 21:19:00,
2013-04-08 17:24:00,70.2,23.4,29.91,WNW,292,4.0,10.1,17,0.00,,---,0.00,VWS V14.01,2013-04-08 21:24:00,
2013-04-08 17:30:00,70.3,23.5,29.91,SW,225,5.4,8.1,17,0.00,,---,0.00,VWS V14.01,2013-04-08 21:30:00,
2013-04-08 17:34:00,70.5,23.6,29.91,SW,225,3.6,8.7,17,0.00,,---,0.00,VWS V14.01,2013-04-08 21:34:00,
2013-04-08 17:39:00,70.5,23.6,29.91,WNW,292,4.0,9.2,17,0.00,,---,0.00,VWS V14.01,2013-04-08 21:39:00,
2013-04-08 17:44:00,70.5,23.6,29.91,West,270,4.0,11.0,17,0.00,,---,0.00,VWS V14.01,2013-04-08 21:44:00,
2013-04-08 17:49:00,70.5,23.6,29.91,West,270,11.0,11.0,17,0.00,,---,0.00,VWS V14.01,2013-04-08 21:49:00,
2013-04-08 17:54:00,70.5,23.6,29.91,SW,225,7.6,8.1,17,0.00,,---,0.00,VWS V14.01,2013-04-08 21:54:00,
2013-04-08 17:59:00,70.5,23.6,29.91,West,270,5.8,9.6,17,0.00,,---,0.00,VWS V14.01,2013-04-08 21:59:00,
2013-04-08 18:04:00,70.3,23.5,29.91,West,270,6.3,8.3,17,0.00,,---,0.00,VWS V14.01,2013-04-08 22:04:00,
2013-04-08 18:09:00,70.2,23.4,29.91,West,270,8.7,11.4,17,0.00,,---,0.00,VWS V14.01,2013-04-08 22:09:00,
2013-04-08 18:15:00,70.2,23.4,29.91,SSW,202,7.6,10.1,17,0.00,,---,0.00,VWS V14.01,2013-04-08 22:15:00,
2013-04-08 18:20:00,70.2,23.4,29.91,South,180,4.9,8.1,17,0.00,,---,0.00,VWS V14.01,2013-04-08 22:20:00,
2013-04-08 18:25:00,70.0,23.2,29.91,South,180,8.3,11.0,17,0.00,,---,0.00,VWS V14.01,2013-04-08 22:25:00,
2013-04-08 18:30:00,70.0,23.2,29.91,SW,225,8.1,9.6,17,0.00,,---,0.00,VWS V14.01,2013-04-08 22:30:00,
2013-04-08 18:34:00,69.8,23.1,29.91,West,270,8.3,9.6,17,0.00,,---,0.00,VWS V14.01,2013-04-08 22:34:00,
2013-04-08 18:39:00,69.6,22.9,29.91,West,270,4.0,5.8,17,0.00,,---,0.00,VWS V14.01,2013-04-08 22:39:00,
2013-04-08 18:44:00,69.3,22.6,29.91,NW,315,13.2,13.2,17,0.00,,---,0.00,VWS V14.01,2013-04-08 22:44:00,
2013-04-08 18:49:00,69.3,22.6,29.91,West,270,5.8,8.7,17,0.00,,---,0.00,VWS V14.01,2013-04-08 22:49:00,
2013-04-08 18:54:00,69.1,22.5,29.91,SW,225,5.4,8.1,17,0.00,,---,0.00,VWS V14.01,2013-04-08 22:54:00,
2013-04-08 19:00:00,69.1,22.5,29.91,South,180,5.8,7.2,17,0.00,,---,0.00,VWS V14.01,2013-04-08 23:00:00,
2013-04-08 19:05:00,68.9,22.3,29.91,West,270,8.1,8.3,17,0.00,,---,0.00,VWS V14.01,2013-04-08 23:05:00,
2013-04-08 19:10:00,68.9,22.3,29.91,SW,225,2.7,2.7,17,0.00,,---,0.00,VWS V14.01,2013-04-08 23:10:00,
2013-04-08 19:15:00,68.7,22.2,29.91,SW,225,4.0,4.9,17,0.00,,---,0.00,VWS V14.01,2013-04-08 23:15:00,
2013-04-08 19:20:00,68.7,22.2,29.91,WSW,248,9.6,9.6,17,0.00,,---,0.00,VWS V14.01,2013-04-08 23:20:00,
2013-04-08 19:25:00,68.5,22.0,29.91,SE,135,5.4,7.6,17,0.00,,---,0.00,VWS V14.01,2013-04-08 23:25:00,
2013-04-08 19:30:00,68.5,22.0,29.91,SW,225,5.8,11.9,17,0.00,,---,0.00,VWS V14.01,2013-04-08 23:30:00,
2013-04-08 19:35:00,68.4,21.9,29.91,South,180,6.3,10.5,17,0.00,,---,0.00,VWS V14.01,2013-04-08 23:35:00,
2013-04-08 19:40:00,68.4,21.9,29.91,SSW,202,4.0,5.8,17,0.00,,---,0.00,VWS V14.01,2013-04-08 23:40:00,
2013-04-08 19:45:00,68.4,21.9,29.91,South,180,4.0,4.0,17,0.00,,---,0.00,VWS V14.01,2013-04-08 23:45:00,
2013-04-08 19:50:00,68.2,21.7,29.91,SW,225,4.0,4.0,17,0.00,,---,0.00,VWS V14.01,2013-04-08 23:50:00,
2013-04-08 19:55:00,68.4,21.9,29.91,West,270,5.4,5.8,17,0.00,,---,0.00,VWS V14.01,2013-04-08 23:55:00,
2013-04-08 20:00:00,68.2,21.7,29.91,SW,225,10.5,10.5,17,0.00,,---,0.00,VWS V14.01,2013-04-09 00:00:00,
2013-04-08 20:05:00,68.2,21.7,29.91,South,180,4.0,7.6,17,0.00,,---,0.00,VWS V14.01,2013-04-09 00:05:00,
2013-04-08 20:10:00,68.0,21.6,29.91,South,180,4.9,6.3,17,0.00,,---,0.00,VWS V14.01,2013-04-09 00:10:00,
2013-04-08 20:15:00,67.6,21.3,29.91,SW,225,10.5,10.5,17,0.00,,---,0.00,VWS V14.01,2013-04-09 00:15:00,
2013-04-08 20:20:00,67.8,21.5,29.91,SW,225,7.2,7.6,17,0.00,,---,0.00,VWS V14.01,2013-04-09 00:20:00,
2013-04-08 20:25:00,67.5,21.2,29.91,WSW,248,6.3,6.3,17,0.00,,---,0.00,VWS V14.01,2013-04-09 00:25:00,
2013-04-08 20:30:00,67.5,21.2,29.91,SE,135,5.8,8.3,17,0.00,,---,0.00,VWS V14.01,2013-04-09 00:30:00,
2013-04-08 20:35:00,67.6,21.3,29.91,WSW,248,8.3,10.5,17,0.00,,---,0.00,VWS V14.01,2013-04-09 00:35:00,
2013-04-08 20:40:00,67.8,21.5,29.91,South,180,6.3,8.1,17,0.00,,---,0.00,VWS V14.01,2013-04-09 00:40:00,
2013-04-08 20:45:00,67.6,21.3,29.91,SW,225,3.6,4.0,17,0.00,,---,0.00,VWS V14.01,2013-04-09 00:45:00,
2013-04-08 20:50:00,67.5,21.2,29.91,SW,225,6.3,6.3,17,0.00,,---,0.00,VWS V14.01,2013-04-09 00:50:00,
2013-04-08 20:55:00,67.6,21.3,29.94,SW,225,3.1,7.6,17,0.00,,---,0.00,VWS V14.01,2013-04-09 00:55:00,
2013-04-08 21:00:00,67.5,21.2,29.94,SW,225,7.2,8.1,17,0.00,,---,0.00,VWS V14.01,2013-04-09 01:00:00,
2013-04-08 21:05:00,66.6,24.3,29.94,SW,225,5.8,5.8,20,0.00,,---,0.00,VWS V14.01,2013-04-09 01:05:00,
2013-04-08 21:10:00,66.4,24.1,29.91,SW,225,3.1,4.9,20,0.00,,---,0.00,VWS V14.01,2013-04-09 01:10:00,
2013-04-08 21:15:00,65.8,23.7,29.91,South,180,5.4,5.4,20,0.00,,---,0.00,VWS V14.01,2013-04-09 01:15:00,
2013-04-08 21:20:00,65.8,23.7,29.91,SW,225,5.8,6.3,20,0.00,,---,0.00,VWS V14.01,2013-04-09 01:20:00,
2013-04-08 21:25:00,65.8,23.7,29.91,SW,225,8.1,8.1,20,0.00,,---,0.00,VWS V14.01,2013-04-09 01:25:00,
2013-04-08 21:30:00,66.0,23.8,29.91,South,180,5.8,5.8,20,0.00,,---,0.00,VWS V14.01,2013-04-09 01:30:00,
2013-04-08 21:35:00,65.7,23.5,29.91,West,270,8.3,14.1,20,0.00,,---,0.00,VWS V14.01,2013-04-09 01:35:00,
2013-04-08 21:40:00,65.8,23.7,29.91,South,180,0.0,4.0,20,0.00,,---,0.00,VWS V14.01,2013-04-09 01:40:00,
2013-04-08 21:45:00,65.8,23.7,29.91,SSW,202,6.3,6.3,20,0.00,,---,0.00,VWS V14.01,2013-04-09 01:45:00,
2013-04-08 21:50:00,65.8,23.7,29.91,SW,225,5.8,10.5,20,0.00,,---,0.00,VWS V14.01,2013-04-09 01:50:00,
2013-04-08 21:55:00,65.8,23.7,29.94,SW,225,4.0,4.0,20,0.00,,---,0.00,VWS V14.01,2013-04-09 01:55:00,
2013-04-08 22:00:00,65.5,23.4,29.94,SW,225,4.9,4.9,20,0.00,,---,0.00,VWS V14.01,2013-04-09 02:00:00,
2013-04-08 22:05:00,65.5,23.4,29.94,SW,225,2.7,3.1,20,0.00,,---,0.00,VWS V14.01,2013-04-09 02:05:00,
2013-04-08 22:10:00,65.5,23.4,29.91,SW,225,3.6,6.7,20,0.00,,---,0.00,VWS V14.01,2013-04-09 02:10:00,
2013-04-08 22:15:00,65.3,23.2,29.91,SW,225,5.4,6.7,20,0.00,,---,0.00,VWS V14.01,2013-04-09 02:15:00,
2013-04-08 22:20:00,65.5,26.7,29.91,SW,225,5.8,5.8,23,0.00,,---,0.00,VWS V14.01,2013-04-09 02:20:00,
2013-04-08 22:25:00,64.8,27.2,29.94,WSW,248,8.3,15.0,24,0.00,,---,0.00,VWS V14.01,2013-04-09 02:25:00,
2013-04-08 22:30:00,64.6,27.0,29.94,WSW,248,6.3,11.0,24,0.00,,---,0.00,VWS V14.01,2013-04-09 02:30:00,
2013-04-08 22:35:00,64.0,27.5,29.94,West,270,4.9,8.1,25,0.00,,---,0.00,VWS V14.01,2013-04-09 02:35:00,
2013-04-08 22:40:00,63.9,27.4,29.94,SW,225,2.7,4.5,25,0.00,,---,0.00,VWS V14.01,2013-04-09 02:40:00,
2013-04-08 22:45:00,63.9,27.4,29.94,SW,225,5.4,8.3,25,0.00,,---,0.00,VWS V14.01,2013-04-09 02:45:00,
2013-04-08 22:50:00,64.2,27.7,29.94,SW,225,6.3,9.6,25,0.00,,---,0.00,VWS V14.01,2013-04-09 02:50:00,
2013-04-08 22:55:00,64.4,26.9,29.94,SW,225,5.4,8.1,24,0.00,,---,0.00,VWS V14.01,2013-04-09 02:55:00,
2013-04-08 23:00:00,64.6,27.0,29.94,SE,135,4.0,7.6,24,0.00,,---,0.00,VWS V14.01,2013-04-09 03:00:00,
2013-04-08 23:05:00,64.8,27.2,29.94,West,270,5.4,8.7,24,0.00,,---,0.00,VWS V14.01,2013-04-09 03:05:00,
2013-04-08 23:10:00,64.8,27.2,29.94,SW,225,4.9,5.4,24,0.00,,---,0.00,VWS V14.01,2013-04-09 03:10:00,
2013-04-08 23:15:00,64.9,27.3,29.94,WSW,248,3.6,4.9,24,0.00,,---,0.00,VWS V14.01,2013-04-09 03:15:00,
2013-04-08 23:20:00,65.3,27.6,29.94,SW,225,7.6,7.6,24,0.00,,---,0.00,VWS V14.01,2013-04-09 03:20:00,
2013-04-08 23:25:00,65.1,27.5,29.94,West,270,5.4,5.4,24,0.00,,---,0.00,VWS V14.01,2013-04-09 03:25:00,
2013-04-08 23:30:00,65.5,27.8,29.94,West,270,3.6,3.6,24,0.00,,---,0.00,VWS V14.01,2013-04-09 03:30:00,
2013-04-08 23:35:00,65.3,28.6,29.94,SW,225,8.1,8.1,25,0.00,,---,0.00,VWS V14.01,2013-04-09 03:35:00,
2013-04-08 23:40:00,65.7,27.9,29.94,NW,315,7.6,8.1,24,0.00,,---,0.00,VWS V14.01,2013-04-09 03:40:00,
2013-04-08 23:45:00,65.8,28.1,29.94,NE,45,7.6,9.6,24,0.00,,---,0.00,VWS V14.01,2013-04-09 03:45:00,
2013-04-08 23:50:00,65.7,27.9,29.94,WNW,292,11.0,11.0,24,0.00,,---,0.00,VWS V14.01,2013-04-09 03:50:00,
2013-04-08 23:55:00,63.3,27.9,29.97,NNW,338,6.3,6.3,26,0.00,,---,0.00,VWS V14.01,2013-04-09 03:55:00,